When you browse on this site, cookies collect data to enhance your experience and personalize the content and advertising you see.
Visit our Privacy Policy to learn more. By continuing to use the site, you agree to this use of cookies and data.
  • In Portugal
  • List of Countries
  • For 7 days
  • Water Temperature
  • Satellite Maps
  • Weather Map
  • Weather Widgets
  • user-avatar
    Login

    Hourly Weather Cobija

    Today, 18 June, Tuesday

    Time Temperature Precipitation Wind Pressure Humidity
    00:00 +22°C° 0 mm 0 mps 740 mmHg 83%
    01:00 +22°C° 0 mm 0 mps 740 mmHg 85%
    02:00 +22°C° 0 mm 0 mps 740 mmHg 86%
    03:00 +22°C° 0 mm 0 mps 739 mmHg 87%
    04:00 +21°C° 0 mm 0 mps 739 mmHg 89%
    05:00 +22°C° 0 mm 0 mps 740 mmHg 87%
    06:00 +22°C° 0 mm 0 mps 740 mmHg 85%
    07:00 +23°C° 0 mm 0 mps 741 mmHg 84%
    08:00 +25°C° 0 mm 0 mps 741 mmHg 75%
    09:00 +28°C° 0 mm 0 mps 741 mmHg 66%
    10:00 +30°C° 0 mm 0 mps 742 mmHg 57%
    11:00 +31°C° 0 mm 0 mps 741 mmHg 53%
    12:00 +34°C° 0 mm 1 mps 740 mmHg 50%
    13:00 +34°C° 0 mm 1 mps 739 mmHg 47%
    14:00 +31°C° 0 mm 0 mps 739 mmHg 52%
    15:00 +30°C° 0 mm 0 mps 738 mmHg 57%
    16:00 +29°C° 0 mm 0 mps 737 mmHg 62%
    17:00 +28°C° 0 mm 0 mps 738 mmHg 65%
    18:00 +27°C° 0 mm 0 mps 738 mmHg 69%
    19:00 +25°C° 0 mm 0 mps 738 mmHg 72%
    20:00 +25°C° 0 mm 0 mps 739 mmHg 74%
    21:00 +24°C° 0 mm 0 mps 739 mmHg 77%
    22:00 +23°C° 0 mm 0 mps 739 mmHg 80%
    23:00 +23°C° 0 mm 0 mps 739 mmHg 81%

    Tomorrow, 19 June, Wednesday

    Time Temperature Precipitation Wind Pressure Humidity
    00:00 +23°C° 0 mm 0 mps 739 mmHg 82%
    01:00 +23°C° 0 mm 0 mps 739 mmHg 83%
    02:00 +22°C° 0 mm 0 mps 739 mmHg 84%
    03:00 +22°C° 0 mm 0 mps 739 mmHg 85%
    04:00 +22°C° 0 mm 0 mps 739 mmHg 87%
    05:00 +22°C° 0 mm 0 mps 739 mmHg 85%
    06:00 +23°C° 0 mm 0 mps 740 mmHg 84%
    07:00 +23°C° 0 mm 0 mps 741 mmHg 83%
    08:00 +26°C° 0 mm 0 mps 741 mmHg 72%
    09:00 +29°C° 0 mm 0 mps 741 mmHg 61%
    10:00 +32°C° 0 mm 0 mps 742 mmHg 51%
    11:00 +32°C° 0 mm 0 mps 741 mmHg 49%
    12:00 +32°C° 0 mm 0 mps 740 mmHg 46%
    13:00 +33°C° 0 mm 0 mps 740 mmHg 44%
    14:00 +32°C° 0 mm 0 mps 739 mmHg 49%
    15:00 +31°C° 0 mm 0 mps 739 mmHg 54%
    16:00 +30°C° 0 mm 0 mps 738 mmHg 59%
    17:00 +28°C° 0 mm 0 mps 738 mmHg 63%
    18:00 +27°C° 0 mm 0 mps 739 mmHg 66%
    19:00 +26°C° 0 mm 0 mps 739 mmHg 69%
    20:00 +25°C° 0 mm 0 mps 739 mmHg 72%
    21:00 +24°C° 0 mm 0 mps 740 mmHg 75%
    22:00 +24°C° 0 mm 0 mps 740 mmHg 77%
    23:00 +23°C° 0 mm 0 mps 740 mmHg 78%

    Day after tomorrow, 20 June, Thursday

    Time Temperature Precipitation Wind Pressure Humidity
    00:00 +23°C° 0 mm 0 mps 740 mmHg 80%
    01:00 +23°C° 0 mm 0 mps 740 mmHg 81%
    02:00 +22°C° 0 mm 0 mps 740 mmHg 82%
    03:00 +22°C° 0 mm 0 mps 740 mmHg 82%
    04:00 +22°C° 0 mm 0 mps 740 mmHg 83%
    05:00 +22°C° 0 mm 0 mps 741 mmHg 82%
    06:00 +22°C° 0 mm 0 mps 741 mmHg 80%
    07:00 +25°C° 0 mm 1 mps 742 mmHg 79%
    08:00 +27°C° 0 mm 1 mps 742 mmHg 70%
    09:00 +30°C° 0 mm 1 mps 742 mmHg 61%
    10:00 +32°C° 0 mm 1 mps 743 mmHg 52%
    11:00 +34°C° 0 mm 2 mps 742 mmHg 48%
    12:00 +35°C° 0 mm 2 mps 741 mmHg 45%
    13:00 +36°C° 0 mm 2 mps 741 mmHg 41%
    14:00 +34°C° 0 mm 1 mps 740 mmHg 45%
    15:00 +33°C° 0 mm 1 mps 739 mmHg 48%
    16:00 +33°C° 0 mm 1 mps 739 mmHg 52%
    17:00 +31°C° 0 mm 1 mps 739 mmHg 57%
    18:00 +29°C° 0 mm 1 mps 740 mmHg 62%
    19:00 +27°C° 0 mm 1 mps 740 mmHg 67%
    20:00 +26°C° 0 mm 1 mps 741 mmHg 72%
    21:00 +26°C° 0 mm 1 mps 741 mmHg 78%
    22:00 +25°C° 0 mm 1 mps 742 mmHg 83%
    23:00 +25°C° 0 mm 1 mps 741 mmHg 85%

    21 June, Friday

    Time Temperature Precipitation Wind Pressure Humidity
    00:00 +24°C° 0 mm 1 mps 741 mmHg 88%
    01:00 +24°C° 0 mm 1 mps 741 mmHg 90%
    02:00 +23°C° 0 mm 1 mps 741 mmHg 91%
    03:00 +23°C° 0 mm 1 mps 741 mmHg 92%
    04:00 +22°C° 0 mm 1 mps 741 mmHg 93%
    05:00 +23°C° 0 mm 1 mps 742 mmHg 91%
    06:00 +23°C° 0 mm 1 mps 742 mmHg 88%
    07:00 +23°C° 0 mm 1 mps 743 mmHg 86%
    08:00 +26°C° 0 mm 1 mps 743 mmHg 76%
    09:00 +28°C° 0 mm 1 mps 743 mmHg 67%
    10:00 +30°C° 0 mm 1 mps 744 mmHg 57%
    11:00 +32°C° 0 mm 1 mps 743 mmHg 52%
    12:00 +33°C° 0 mm 1 mps 742 mmHg 47%
    13:00 +34°C° 0 mm 1 mps 741 mmHg 41%
    14:00 +34°C° 0 mm 1 mps 740 mmHg 44%
    15:00 +31°C° 0 mm 0 mps 740 mmHg 47%
    16:00 +30°C° 0 mm 0 mps 739 mmHg 51%
    17:00 +28°C° 0 mm 0 mps 739 mmHg 55%
    18:00 +26°C° 0 mm 0 mps 740 mmHg 60%
    19:00 +24°C° 0 mm 0 mps 740 mmHg 65%
    20:00 +24°C° 0 mm 0 mps 740 mmHg 68%
    21:00 +23°C° 0 mm 0 mps 741 mmHg 70%
    22:00 +22°C° 0 mm 0 mps 741 mmHg 73%
    23:00 +22°C° 0 mm 0 mps 741 mmHg 76%

    22 June, Saturday

    Time Temperature Precipitation Wind Pressure Humidity
    00:00 +21°C° 0 mm 0 mps 741 mmHg 78%
    01:00 +21°C° 0 mm 0 mps 741 mmHg 80%
    02:00 +21°C° 0 mm 0 mps 741 mmHg 82%
    03:00 +20°C° 0 mm 0 mps 741 mmHg 84%
    04:00 +20°C° 0 mm 0 mps 741 mmHg 85%
    05:00 +21°C° 0 mm 0 mps 741 mmHg 83%
    06:00 +21°C° 0 mm 0 mps 742 mmHg 81%
    07:00 +22°C° 0 mm 0 mps 742 mmHg 79%
    08:00 +25°C° 0 mm 0 mps 743 mmHg 68%
    09:00 +28°C° 0 mm 0 mps 743 mmHg 56%
    10:00 +31°C° 0 mm 0 mps 743 mmHg 45%
    11:00 +32°C° 0 mm 0 mps 742 mmHg 42%
    12:00 +33°C° 0 mm 0 mps 741 mmHg 39%
    13:00 +34°C° 0 mm 0 mps 741 mmHg 37%
    14:00 +33°C° 0 mm 0 mps 740 mmHg 42%
    15:00 +31°C° 0 mm 0 mps 739 mmHg 48%
    16:00 +30°C° 0 mm 0 mps 739 mmHg 53%
    17:00 +28°C° 0 mm 0 mps 739 mmHg 57%
    18:00 +27°C° 0 mm 0 mps 739 mmHg 62%
    19:00 +25°C° 0 mm 0 mps 739 mmHg 66%
    20:00 +24°C° 0 mm 0 mps 740 mmHg 67%
    21:00 +24°C° 0 mm 0 mps 740 mmHg 69%
    22:00 +24°C° 0 mm 0 mps 740 mmHg 70%
    23:00 +23°C° 0 mm 0 mps 740 mmHg 72%

    23 June, Sunday

    Time Temperature Precipitation Wind Pressure Humidity
    00:00 +23°C° 0 mm 0 mps 740 mmHg 74%
    01:00 +22°C° 0 mm 0 mps 740 mmHg 76%
    02:00 +22°C° 0 mm 0 mps 740 mmHg 78%
    03:00 +21°C° 0 mm 0 mps 740 mmHg 79%
    04:00 +21°C° 0 mm 0 mps 740 mmHg 81%
    05:00 +22°C° 0 mm 0 mps 741 mmHg 79%
    06:00 +22°C° 0 mm 0 mps 741 mmHg 78%
    07:00 +22°C° 0 mm 0 mps 742 mmHg 77%
    08:00 +27°C° 0 mm 1 mps 742 mmHg 67%
    09:00 +30°C° 0 mm 1 mps 742 mmHg 58%
    10:00 +32°C° 0 mm 1 mps 742 mmHg 48%
    11:00 +33°C° 0 mm 1 mps 742 mmHg 45%
    12:00 +35°C° 0 mm 1 mps 741 mmHg 42%
    13:00 +36°C° 0 mm 1 mps 740 mmHg 38%
    14:00 +33°C° 0 mm 0 mps 739 mmHg 43%
    15:00 +31°C° 0 mm 0 mps 738 mmHg 48%
    16:00 +30°C° 0 mm 0 mps 738 mmHg 52%
    17:00 +29°C° 0 mm 0 mps 738 mmHg 56%
    18:00 +27°C° 0 mm 0 mps 738 mmHg 59%
    19:00 +26°C° 0 mm 0 mps 738 mmHg 63%
    20:00 +25°C° 0 mm 0 mps 738 mmHg 65%
    21:00 +24°C° 0 mm 0 mps 739 mmHg 67%
    22:00 +24°C° 0 mm 0 mps 739 mmHg 69%
    23:00 +23°C° 0 mm 0 mps 739 mmHg 71%
    Show more